Temp
-4 -5 -5 -5 -5 -5 -5 -5 -5 -5 -5 -5 -5 -5 -5 -5 -5 -5 -5 -5 -5 -5 -5 -5 -4 -4 -4 -4 -4 -4 -3 -3 -3 -4 -4 -4 -4 -4 -4 -4 -4 -4 -4 -4 -4 -4 -4 -4 -4 -4 -4 -4 -4 -4 -5 -5 -5 -5 -5 -5 -5 -6 -6
-4 -5 -5 -4 -5 -5 -5 -5 -5 -5 -5 -5 -5 -5 -5 -5 -5 -5 -5 -5 -5 -5 -5 -5 -5 -4 -4 -4 -4 -4 -3 -3 -3 -4 -4 -4 -4 -4 -4 -4 -4 -4 -4 -4 -4 -4 -4 -4 -4 -4 -4 -4 -4 -4 -5 -5 -5 -5 -5 -5 -5 -6 -6
-4 -4 -4 -4 -5 -5 -5 -5 -5 -5 -5 -5 -5 -5 -5 -5 -5 -5 -5 -5 -5 -5 -5 -5 -5 -4 -4 -4 -4 -4 -3 -3 -3 -3 -4 -4 -4 -4 -4 -4 -4 -4 -3 -4 -4 -4 -4 -4 -4 -4 -4 -4 -4 -5 -5 -5 -5 -5 -5 -5 -5 -5 -6
-4 -4 -4 -4 -5 -5 -5 -5 -5 -5 -5 -5 -5 -5 -5 -5 -5 -5 -5 -5 -5 -5 -5 -5 -5 -5 -4 -4 -4 -4 -4 -3 -3 -3 -3 -4 -4 -4 -4 -4 -4 -4 -4 -4 -4 -4 -4 -4 -4 -4 -4 -4 -4 -4 -5 -5 -5 -5 -5 -5 -5 -6 -6
-4 -4 -4 -4 -5 -5 -5 -5 -5 -5 -5 -5 -5 -5 -5 -5 -5 -5 -5 -5 -5 -5 -5 -5 -4 -5 -4 -4 -4 -4 -4 -3 -3 -3 -3 -3 -3 -4 -4 -4 -4 -4 -4 -4 -4 -4 -4 -4 -4 -4 -4 -4 -4 -4 -5 -5 -5 -5 -5 -6 -6 -6 -6
-5 -4 -4 -4 -4 -5 -5 -5 -5 -5 -5 -5 -5 -5 -5 -5 -5 -5 -5 -5 -5 -5 -5 -4 -4 -4 -4 -4 -4 -4 -4 -4 -3 -3 -3 -3 -3 -3 -4 -4 -4 -4 -4 -4 -4 -4 -4 -4 -4 -4 -4 -4 -4 -5 -5 -5 -5 -5 -5 -6 -6 -6 -6
-6 -5 -4 -4 -4 -4 -5 -5 -5 -5 -5 -5 -5 -5 -5 -5 -5 -5 -5 -5 -6 -5 -5 -5 -4 -4 -4 -4 -4 -4 -4 -3 -3 -3 -3 -3 -3 -3 -4 -4 -4 -4 -4 -4 -4 -4 -4 -4 -4 -4 -4 -4 -4 -5 -5 -5 -5 -5 -5 -6 -6 -6 -6
-6 -5 -5 -4 -4 -4 -4 -5 -5 -5 -5 -5 -5 -5 -5 -5 -5 -5 -4 -5 -5 -5 -5 -5 -5 -4 -4 -4 -4 -4 -4 -4 -3 -3 -3 -3 -4 -4 -4 -4 -4 -4 -4 -4 -4 -4 -4 -4 -4 -4 -4 -4 -5 -5 -5 -5 -5 -5 -5 -5 -6 -6 -5
-6 -6 -5 -5 -4 -4 -4 -5 -5 -5 -5 -5 -5 -5 -5 -6 -5 -5 -5 -5 -5 -5 -5 -5 -5 -5 -4 -4 -4 -4 -4 -4 -3 -3 -3 -3 -4 -4 -4 -4 -4 -3 -4 -4 -4 -4 -4 -4 -4 -4 -4 -5 -5 -5 -5 -5 -5 -5 -5 -5 -5 -5 -5
-6 -6 -6 -5 -5 -4 -4 -4 -5 -5 -5 -5 -5 -5 -5 -6 -6 -5 -5 -5 -5 -5 -5 -5 -5 -5 -4 -4 -4 -4 -4 -4 -4 -3 -3 -3 -4 -4 -4 -4 -4 -3 -3 -4 -4 -4 -4 -4 -4 -4 -4 -5 -5 -5 -5 -5 -5 -5 -5 -5 -5 -5 -5
-6 -6 -6 -6 -6 -4 -3 -4 -4 -5 -5 -5 -5 -5 -5 -5 -6 -5 -5 -5 -5 -5 -5 -5 -5 -5 -5 -4 -4 -4 -4 -4 -4 -4 -4 -3 -4 -4 -4 -4 -4 -4 -4 -4 -4 -4 -4 -4 -4 -4 -4 -4 -5 -5 -5 -5 -5 -5 -5 -5 -5 -5 -5
-6 -6 -6 -6 -6 -5 -4 -3 -4 -5 -5 -5 -5 -5 -5 -5 -6 -6 -5 -5 -5 -5 -5 -5 -5 -5 -5 -4 -4 -4 -4 -4 -4 -4 -4 -4 -4 -4 -4 -4 -4 -4 -4 -4 -4 -4 -4 -4 -4 -4 -4 -4 -4 -5 -5 -5 -5 -5 -5 -5 -5 -5 -5
-6 -6 -6 -6 -6 -6 -5 -4 -4 -5 -6 -6 -5 -5 -5 -6 -6 -6 -6 -6 -5 -5 -5 -5 -5 -5 -5 -5 -4 -4 -4 -4 -4 -4 -4 -4 -4 -4 -4 -4 -4 -4 -4 -4 -4 -4 -4 -4 -4 -4 -4 -4 -4 -4 -4 -5 -5 -5 -5 -5 -5 -5 -5
-7 -7 -8 -7 -7 -6 -6 -5 -4 -5 -5 -6 -6 -5 -6 -6 -6 -6 -6 -6 -5 -5 -5 -5 -5 -5 -5 -5 -4 -5 -5 -4 -4 -4 -4 -4 -4 -4 -4 -4 -4 -4 -4 -4 -4 -4 -4 -4 -4 -4 -4 -4 -4 -4 -4 -4 -5 -5 -5 -5 -5 -5 -5
-7 -7 -8 -8 -7 -7 -6 -6 -5 -5 -5 -6 -6 -6 -6 -6 -6 -6 -6 -6 -5 -5 -5 -5 -5 -5 -5 -5 -5 -5 -5 -5 -5 -4 -4 -4 -4 -4 -4 -4 -4 -4 -4 -4 -4 -4 -4 -4 -4 -4 -4 -4 -4 -4 -4 -4 -5 -5 -5 -5 -5 -5 -5
-7 -7 -7 -7 -6 -6 -6 -5 -5 -5 -5 -6 -6 -6 -6 -6 -6 -6 -6 -6 -5 -5 -5 -5 -5 -5 -5 -5 -5 -5 -5 -5 -5 -5 -5 -4 -4 -4 -4 -4 -4 -4 -4 -4 -4 -4 -4 -4 -4 -4 -4 -4 -4 -4 -4 -4 -5 -5 -5 -5 -5 -5 -5
-8 -7 -7 -6 -5 -5 -5 -5 -5 -5 -5 -5 -6 -6 -6 -6 -6 -6 -6 -6 -6 -6 -5 -5 -5 -5 -5 -6 -5 -5 -5 -5 -5 -5 -5 -5 -5 -4 -4 -4 -4 -4 -4 -4 -4 -4 -4 -4 -4 -4 -4 -4 -4 -4 -4 -4 -5 -5 -5 -5 -5 -5 -5
-9 -8 -7 -7 -6 -6 -5 -5 -5 -5 -4 -5 -5 -6 -6 -6 -5 -6 -6 -6 -6 -6 -5 -5 -5 -5 -5 -6 -6 -5 -5 -5 -5 -5 -5 -5 -5 -5 -5 -4 -4 -4 -4 -4 -4 -4 -4 -4 -4 -5 -5 -4 -4 -4 -4 -4 -5 -5 -5 -5 -5 -5 -5
-9 -8 -8 -7 -7 -6 -6 -6 -5 -5 -5 -5 -5 -5 -5 -5 -5 -5 -6 -6 -6 -6 -6 -6 -5 -5 -6 -6 -6 -6 -6 -5 -5 -5 -5 -5 -5 -5 -5 -5 -4 -4 -4 -4 -4 -4 -4 -4 -4 -5 -5 -5 -4 -4 -4 -4 -5 -5 -5 -5 -5 -5 -5
-8 -8 -8 -7 -7 -7 -6 -6 -5 -5 -5 -5 -5 -5 -5 -5 -5 -5 -6 -6 -6 -6 -6 -6 -5 -5 -6 -6 -6 -6 -6 -6 -6 -5 -5 -5 -5 -5 -5 -5 -5 -5 -4 -4 -4 -4 -4 -4 -4 -4 -4 -5 -5 -5 -5 -4 -5 -5 -5 -5 -5 -5 -5
-8 -8 -8 -7 -7 -7 -6 -6 -6 -5 -5 -5 -5 -5 -5 -5 -5 -5 -5 -6 -6 -6 -6 -5 -5 -5 -5 -5 -5 -6 -6 -6 -6 -6 -6 -5 -5 -5 -5 -5 -5 -5 -5 -4 -4 -4 -4 -4 -4 -4 -4 -4 -5 -5 -5 -5 -5 -5 -5 -5 -5 -5 -5
-8 -8 -8 -7 -7 -7 -7 -6 -6 -5 -5 -5 -5 -5 -5 -5 -6 -5 -5 -5 -6 -6 -5 -5 -5 -5 -5 -5 -5 -6 -6 -6 -6 -6 -6 -6 -5 -5 -6 -6 -5 -5 -5 -5 -4 -4 -4 -4 -4 -4 -5 -4 -4 -5 -5 -5 -5 -5 -5 -5 -5 -4 -4
-8 -8 -8 -7 -7 -7 -7 -6 -6 -5 -5 -5 -5 -5 -5 -6 -6 -6 -6 -6 -6 -6 -6 -5 -5 -5 -5 -5 -5 -5 -6 -6 -6 -6 -6 -6 -6 -6 -6 -6 -6 -5 -5 -5 -5 -4 -5 -4 -4 -4 -5 -5 -4 -4 -5 -5 -5 -5 -5 -5 -4 -4 -4
-9 -8 -8 -8 -7 -7 -7 -7 -6 -6 -5 -5 -5 -5 -6 -6 -6 -6 -6 -6 -6 -6 -6 -6 -5 -5 -5 -5 -5 -5 -6 -6 -6 -6 -6 -6 -6 -6 -6 -6 -6 -5 -5 -5 -5 -5 -5 -5 -5 -4 -5 -5 -5 -4 -4 -5 -4 -5 -5 -5 -4 -4 -4
-9 -9 -8 -8 -8 -8 -7 -7 -7 -6 -6 -5 -5 -6 -6 -6 -6 -6 -6 -6 -6 -7 -6 -6 -6 -6 -6 -6 -6 -6 -6 -6 -6 -6 -6 -6 -6 -6 -6 -6 -6 -5 -5 -5 -5 -5 -5 -5 -5 -5 -4 -5 -5 -4 -4 -4 -4 -4 -4 -4 -4 -4 -4
-9 -9 -9 -8 -8 -8 -8 -7 -7 -6 -6 -6 -6 -6 -6 -6 -6 -6 -6 -6 -7 -7 -7 -6 -6 -6 -6 -6 -6 -6 -6 -6 -6 -6 -6 -6 -6 -6 -6 -6 -6 -5 -5 -5 -5 -5 -5 -5 -5 -5 -5 -5 -5 -5 -4 -4 -4 -4 -4 -4 -4 -4 -4
-9 -9 -9 -9 -8 -8 -8 -7 -7 -7 -7 -6 -6 -6 -6 -6 -6 -6 -6 -7 -7 -7 -7 -7 -7 -6 -6 -6 -6 -6 -6 -6 -6 -6 -6 -6 -6 -6 -6 -6 -6 -5 -5 -5 -5 -5 -5 -5 -5 -5 -5 -5 -5 -5 -5 -5 -5 -5 -4 -4 -4 -4 -4
-9 -9 -9 -8 -8 -8 -7 -7 -7 -7 -7 -7 -6 -7 -7 -7 -7 -7 -6 -6 -6 -7 -7 -7 -7 -6 -7 -7 -7 -6 -6 -6 -6 -6 -6 -6 -6 -6 -6 -6 -6 -6 -5 -5 -5 -5 -5 -5 -5 -5 -5 -5 -5 -5 -5 -5 -5 -5 -5 -5 -5 -4 -4
-9 -9 -9 -8 -8 -8 -7 -7 -7 -7 -7 -7 -7 -7 -7 -7 -7 -7 -7 -7 -7 -7 -7 -7 -7 -6 -6 -7 -7 -7 -7 -7 -7 -7 -6 -6 -6 -6 -6 -6 -6 -5 -5 -5 -5 -5 -5 -5 -5 -5 -5 -5 -5 -5 -5 -5 -5 -5 -5 -5 -5 -5 -5
-9 -8 -8 -8 -8 -8 -8 -7 -7 -7 -7 -7 -7 -7 -7 -7 -7 -7 -7 -7 -7 -7 -7 -7 -7 -6 -6 -7 -7 -7 -7 -7 -7 -7 -7 -6 -6 -6 -6 -6 -6 -6 -5 -5 -5 -5 -5 -5 -5 -5 -5 -5 -6 -5 -5 -5 -5 -5 -5 -5 -5 -5 -5
-9 -9 -9 -9 -9 -9 -8 -7 -7 -7 -7 -7 -7 -7 -7 -7 -7 -7 -7 -7 -7 -7 -7 -7 -7 -7 -6 -6 -7 -7 -7 -7 -7 -7 -7 -6 -6 -6 -6 -6 -6 -5 -5 -5 -5 -5 -5 -5 -5 -5 -5 -5 -5 -5 -5 -5 -5 -5 -5 -6 -6 -6 -6
-9 -9 -9 -9 -9 -9 -9 -8 -7 -7 -7 -6 -6 -6 -6 -7 -7 -7 -7 -7 -7 -7 -7 -7 -7 -7 -6 -6 -7 -7 -7 -7 -7 -7 -7 -6 -6 -6 -6 -6 -6 -5 -5 -5 -5 -5 -5 -5 -5 -5 -5 -5 -5 -5 -6 -5 -6 -6 -6 -6 -6 -6 -6
-9 -9 -9 -9 -8 -8 -9 -8 -8 -7 -7 -6 -6 -6 -6 -6 -7 -7 -7 -7 -7 -7 -7 -7 -7 -6 -6 -6 -6 -7 -7 -7 -7 -7 -7 -7 -7 -6 -6 -6 -6 -6 -5 -5 -5 -5 -5 -5 -5 -5 -5 -5 -5 -6 -6 -6 -6 -6 -6 -6 -6 -6 -6
-10 -9 -9 -9 -8 -8 -8 -8 -8 -7 -7 -6 -6 -6 -6 -6 -6 -6 -6 -6 -6 -6 -6 -6 -6 -6 -6 -6 -6 -6 -7 -7 -7 -7 -7 -7 -7 -7 -6 -6 -6 -6 -5 -5 -5 -5 -5 -5 -5 -5 -5 -5 -5 -6 -6 -6 -6 -6 -6 -6 -6 -6 -6
-10 -9 -9 -9 -8 -8 -8 -8 -8 -7 -7 -6 -6 -5 -6 -6 -6 -6 -6 -6 -6 -6 -6 -6 -6 -6 -6 -6 -6 -6 -6 -6 -7 -7 -7 -7 -7 -7 -7 -6 -6 -6 -5 -5 -5 -5 -5 -5 -5 -5 -5 -6 -6 -6 -6 -6 -6 -6 -6 -6 -6 -6 -7
-10 -10 -9 -9 -8 -8 -8 -8 -7 -7 -7 -6 -6 -5 -5 -5 -5 -5 -5 -5 -5 -6 -6 -6 -6 -6 -6 -6 -6 -6 -6 -6 -7 -7 -7 -7 -7 -7 -7 -6 -6 -6 -6 -5 -5 -5 -5 -5 -5 -6 -6 -6 -6 -6 -6 -6 -6 -6 -6 -6 -7 -7 -7
-10 -10 -9 -9 -8 -7 -7 -7 -7 -7 -6 -6 -6 -5 -5 -5 -5 -5 -5 -5 -5 -5 -5 -5 -5 -6 -6 -6 -6 -6 -7 -7 -7 -7 -7 -7 -7 -7 -7 -7 -6 -6 -6 -6 -5 -5 -5 -6 -6 -6 -6 -6 -6 -6 -6 -6 -6 -6 -7 -7 -7 -7 -7
-10 -10 -9 -9 -8 -7 -7 -7 -6 -6 -6 -6 -5 -5 -5 -5 -5 -5 -5 -5 -5 -5 -5 -5 -5 -5 -6 -7 -7 -7 -7 -7 -8 -8 -8 -7 -7 -7 -7 -7 -6 -6 -6 -6 -6 -6 -6 -6 -6 -6 -6 -6 -6 -6 -7 -7 -7 -7 -7 -7 -7 -7 -7
Height
5878 5879 5880 5883 5887 5890 5892 5894 5895 5897 5899 5902 5904 5906 5907 5906 5904 5903 5904 5906 5909 5912 5916 5919 5921 5924 5926 5928 5930 5931 5933 5935 5937 5939 5940 5941 5943 5944 5945 5947 5948 5949 5950 5951 5953 5954 5955 5956 5956 5957 5958 5958 5959 5960 5961 5961 5962 5963 5963 5964 5964 5965 5966
5877 5878 5879 5882 5885 5888 5891 5893 5894 5896 5898 5900 5902 5905 5906 5906 5903 5902 5903 5905 5908 5911 5914 5917 5920 5922 5925 5926 5928 5930 5932 5934 5937 5938 5940 5941 5942 5944 5945 5946 5947 5949 5950 5951 5952 5954 5955 5956 5956 5957 5958 5958 5959 5960 5960 5961 5962 5963 5963 5964 5964 5965 5966
5876 5877 5879 5883 5885 5887 5890 5892 5893 5895 5897 5899 5901 5903 5905 5905 5902 5900 5901 5903 5906 5909 5912 5915 5918 5920 5923 5925 5927 5929 5931 5933 5936 5937 5939 5941 5942 5943 5944 5945 5947 5948 5949 5951 5952 5953 5954 5955 5956 5957 5957 5958 5959 5959 5960 5961 5962 5962 5963 5964 5965 5965 5966
5873 5876 5878 5883 5885 5886 5888 5890 5891 5893 5895 5897 5899 5901 5903 5905 5902 5899 5899 5901 5904 5907 5910 5913 5916 5918 5921 5923 5925 5928 5930 5932 5934 5936 5938 5940 5941 5943 5944 5945 5946 5948 5949 5950 5951 5953 5954 5955 5956 5956 5957 5958 5958 5959 5960 5961 5961 5962 5963 5964 5965 5965 5966
5869 5872 5875 5879 5883 5884 5885 5887 5889 5891 5893 5896 5897 5899 5901 5903 5902 5899 5897 5900 5903 5906 5908 5911 5913 5916 5918 5921 5924 5926 5928 5931 5933 5935 5937 5939 5941 5942 5944 5945 5946 5947 5948 5949 5951 5952 5953 5954 5955 5956 5957 5958 5958 5959 5960 5960 5961 5962 5963 5964 5965 5966 5966
5864 5867 5870 5874 5878 5881 5881 5883 5886 5889 5891 5894 5895 5897 5899 5901 5902 5899 5896 5898 5901 5904 5907 5909 5912 5915 5917 5920 5922 5924 5927 5929 5931 5934 5936 5937 5940 5942 5943 5944 5945 5946 5948 5949 5950 5951 5952 5953 5954 5955 5957 5957 5958 5959 5960 5960 5961 5962 5963 5964 5965 5966 5966
5863 5864 5867 5870 5873 5876 5878 5881 5884 5887 5890 5892 5893 5894 5896 5900 5902 5900 5896 5896 5900 5903 5905 5908 5911 5914 5916 5919 5921 5923 5925 5927 5930 5932 5934 5936 5938 5940 5942 5943 5945 5946 5947 5948 5949 5951 5952 5953 5954 5955 5956 5957 5958 5959 5960 5960 5961 5962 5963 5964 5965 5966 5966
5862 5863 5864 5866 5869 5873 5877 5880 5882 5885 5888 5890 5891 5892 5894 5897 5901 5902 5898 5895 5898 5901 5904 5907 5909 5912 5914 5917 5919 5922 5923 5925 5928 5930 5932 5935 5937 5939 5940 5942 5944 5945 5946 5948 5949 5950 5951 5952 5953 5954 5955 5957 5958 5958 5959 5960 5961 5962 5962 5963 5964 5965 5966
5860 5861 5862 5863 5865 5870 5876 5878 5880 5882 5885 5887 5888 5890 5891 5894 5899 5902 5900 5896 5896 5899 5903 5905 5907 5910 5912 5914 5917 5919 5921 5923 5926 5928 5931 5933 5935 5937 5939 5940 5942 5944 5945 5947 5948 5949 5950 5951 5952 5954 5955 5956 5957 5958 5959 5960 5961 5961 5962 5963 5964 5964 5965
5856 5858 5860 5860 5861 5866 5873 5877 5877 5879 5881 5883 5885 5887 5889 5891 5895 5899 5899 5897 5896 5898 5901 5904 5906 5908 5910 5912 5915 5917 5919 5921 5924 5926 5929 5931 5934 5935 5937 5939 5940 5942 5944 5945 5947 5949 5949 5950 5952 5953 5954 5955 5957 5957 5959 5959 5960 5961 5962 5963 5963 5964 5964
5851 5854 5856 5858 5858 5862 5868 5874 5875 5876 5878 5880 5883 5886 5888 5890 5893 5895 5897 5898 5897 5896 5899 5903 5905 5907 5908 5910 5912 5914 5917 5919 5921 5924 5927 5930 5932 5934 5935 5937 5939 5940 5942 5944 5945 5947 5948 5949 5951 5952 5953 5954 5956 5957 5958 5959 5960 5961 5961 5962 5963 5964 5964
5847 5850 5852 5855 5856 5858 5863 5869 5873 5874 5875 5878 5881 5883 5886 5888 5889 5892 5894 5897 5898 5896 5897 5901 5904 5905 5907 5908 5910 5912 5914 5917 5919 5922 5925 5927 5930 5931 5933 5935 5936 5938 5940 5942 5944 5945 5947 5948 5949 5951 5952 5953 5954 5955 5956 5958 5959 5960 5961 5962 5963 5963 5964
5844 5848 5849 5852 5854 5855 5858 5863 5869 5872 5873 5875 5878 5880 5882 5884 5886 5889 5891 5894 5895 5895 5896 5900 5902 5904 5906 5907 5909 5911 5912 5915 5917 5919 5922 5924 5927 5928 5930 5932 5934 5936 5938 5940 5942 5944 5945 5946 5948 5949 5950 5951 5953 5954 5955 5957 5958 5960 5961 5962 5962 5963 5963
5840 5846 5848 5850 5852 5853 5854 5857 5863 5868 5870 5872 5874 5876 5878 5880 5882 5886 5888 5890 5891 5892 5894 5898 5901 5903 5904 5906 5908 5909 5911 5913 5914 5917 5919 5921 5923 5925 5928 5930 5932 5934 5936 5938 5940 5942 5944 5945 5946 5947 5948 5950 5951 5953 5954 5955 5957 5959 5960 5961 5962 5962 5963
5835 5839 5841 5843 5845 5848 5850 5852 5856 5862 5865 5867 5870 5872 5874 5877 5879 5882 5885 5887 5888 5890 5893 5896 5899 5901 5903 5904 5906 5908 5909 5910 5912 5914 5916 5918 5920 5923 5925 5928 5930 5932 5934 5936 5938 5939 5941 5943 5944 5945 5947 5948 5950 5952 5953 5954 5956 5958 5959 5960 5960 5961 5962
5831 5833 5833 5834 5838 5842 5846 5848 5852 5857 5861 5864 5866 5868 5870 5873 5875 5879 5881 5884 5886 5888 5891 5894 5897 5899 5901 5903 5904 5906 5907 5909 5910 5912 5914 5916 5918 5920 5923 5925 5927 5929 5932 5934 5935 5937 5939 5941 5942 5944 5945 5947 5948 5950 5952 5953 5955 5956 5957 5958 5959 5960 5961
5828 5830 5831 5833 5836 5840 5843 5845 5849 5853 5855 5857 5860 5862 5865 5868 5871 5874 5877 5880 5883 5886 5889 5892 5894 5897 5899 5901 5902 5903 5905 5907 5908 5910 5911 5913 5915 5917 5920 5922 5924 5927 5929 5931 5933 5935 5937 5939 5940 5942 5943 5945 5946 5948 5950 5952 5953 5954 5955 5956 5957 5958 5959
5823 5826 5829 5831 5834 5837 5840 5843 5847 5850 5852 5853 5853 5855 5858 5862 5866 5870 5873 5877 5880 5883 5886 5889 5892 5894 5897 5898 5899 5901 5903 5905 5906 5908 5909 5911 5913 5915 5917 5919 5922 5924 5927 5929 5931 5932 5934 5936 5938 5940 5941 5942 5944 5946 5948 5950 5951 5952 5953 5954 5955 5957 5958
5818 5820 5824 5828 5830 5834 5836 5839 5843 5847 5850 5853 5854 5855 5858 5860 5863 5866 5870 5873 5877 5879 5882 5885 5889 5892 5894 5896 5897 5899 5901 5902 5904 5905 5907 5908 5910 5912 5914 5917 5919 5922 5924 5927 5929 5930 5932 5934 5936 5937 5939 5940 5942 5944 5945 5947 5949 5950 5951 5952 5953 5955 5956
5814 5816 5819 5822 5826 5830 5832 5834 5838 5841 5845 5850 5853 5856 5857 5858 5860 5862 5866 5869 5872 5875 5878 5881 5885 5888 5891 5894 5896 5897 5899 5900 5902 5903 5904 5906 5907 5909 5912 5914 5917 5919 5921 5923 5926 5928 5929 5931 5933 5935 5936 5938 5939 5941 5942 5944 5946 5947 5949 5949 5951 5952 5954
5809 5812 5815 5818 5822 5825 5828 5831 5834 5838 5841 5845 5848 5851 5853 5855 5858 5860 5863 5865 5868 5871 5874 5877 5881 5885 5888 5891 5894 5896 5897 5898 5900 5901 5902 5904 5905 5907 5909 5911 5914 5916 5918 5920 5923 5925 5926 5928 5930 5932 5933 5935 5937 5938 5939 5941 5943 5945 5946 5947 5948 5950 5951
5806 5808 5811 5815 5818 5821 5824 5827 5831 5835 5839 5841 5844 5847 5849 5852 5856 5859 5861 5864 5867 5870 5872 5875 5878 5882 5885 5888 5891 5893 5895 5896 5898 5899 5900 5902 5903 5905 5907 5909 5911 5913 5915 5917 5919 5921 5923 5925 5927 5929 5930 5932 5934 5935 5936 5938 5940 5942 5943 5944 5945 5947 5949
5802 5804 5807 5811 5814 5817 5821 5825 5828 5832 5835 5838 5841 5844 5848 5851 5854 5857 5860 5864 5868 5870 5871 5873 5876 5880 5883 5885 5888 5891 5893 5894 5896 5897 5899 5900 5902 5903 5905 5906 5908 5910 5912 5913 5915 5918 5920 5922 5924 5926 5927 5928 5930 5932 5934 5935 5937 5939 5940 5941 5942 5944 5946
5798 5801 5804 5807 5810 5814 5818 5821 5825 5829 5832 5834 5836 5840 5845 5850 5853 5856 5859 5862 5866 5868 5870 5872 5875 5878 5880 5882 5885 5888 5890 5892 5894 5895 5897 5898 5900 5901 5902 5904 5905 5907 5909 5910 5912 5914 5917 5918 5920 5922 5924 5925 5927 5929 5930 5932 5934 5936 5937 5938 5939 5941 5943
5794 5797 5800 5804 5807 5810 5814 5817 5821 5825 5828 5831 5833 5835 5840 5845 5849 5853 5856 5858 5861 5864 5867 5869 5872 5876 5878 5880 5882 5884 5887 5889 5891 5893 5894 5896 5897 5899 5900 5901 5902 5904 5905 5907 5909 5911 5913 5915 5916 5918 5921 5922 5923 5925 5927 5928 5930 5932 5934 5935 5936 5938 5940
5790 5793 5797 5800 5803 5806 5810 5813 5818 5822 5825 5828 5831 5833 5836 5839 5842 5847 5851 5854 5857 5860 5864 5867 5870 5873 5875 5877 5878 5880 5883 5885 5888 5890 5892 5893 5894 5896 5897 5898 5899 5901 5902 5904 5906 5907 5909 5911 5913 5915 5917 5919 5920 5921 5923 5925 5927 5929 5930 5931 5933 5934 5936
5786 5789 5793 5796 5799 5802 5806 5809 5814 5818 5821 5824 5828 5830 5833 5836 5839 5842 5846 5850 5853 5857 5861 5865 5867 5869 5871 5873 5875 5877 5879 5882 5884 5886 5888 5890 5891 5892 5894 5895 5897 5898 5899 5900 5902 5904 5906 5908 5910 5911 5913 5915 5916 5918 5920 5921 5923 5925 5926 5927 5929 5930 5932
5782 5785 5789 5792 5795 5798 5801 5805 5809 5813 5817 5821 5824 5827 5830 5833 5836 5840 5843 5846 5850 5854 5858 5860 5862 5864 5867 5870 5872 5874 5876 5878 5880 5882 5884 5886 5888 5889 5891 5893 5894 5895 5896 5897 5899 5900 5902 5904 5906 5908 5909 5911 5913 5915 5917 5918 5919 5921 5923 5923 5925 5926 5928
5779 5782 5785 5788 5791 5794 5797 5801 5805 5809 5813 5817 5820 5823 5826 5829 5833 5836 5839 5843 5848 5852 5853 5854 5857 5860 5863 5866 5868 5870 5872 5874 5876 5878 5880 5882 5884 5886 5888 5889 5891 5892 5893 5894 5895 5897 5899 5901 5903 5904 5906 5908 5909 5911 5913 5914 5916 5917 5919 5920 5921 5922 5924
5776 5778 5781 5784 5787 5790 5793 5797 5801 5805 5809 5813 5817 5819 5822 5826 5829 5832 5836 5841 5846 5848 5848 5849 5852 5855 5859 5862 5865 5866 5868 5871 5872 5874 5876 5878 5880 5882 5884 5886 5887 5889 5890 5891 5892 5894 5895 5897 5899 5901 5903 5904 5906 5907 5909 5911 5912 5914 5915 5916 5917 5918 5921
5772 5774 5777 5780 5783 5785 5789 5793 5797 5801 5805 5809 5813 5815 5818 5822 5826 5829 5833 5838 5842 5843 5843 5846 5849 5851 5855 5859 5861 5862 5865 5867 5868 5870 5872 5874 5876 5878 5880 5882 5883 5885 5887 5887 5889 5890 5892 5894 5895 5897 5899 5901 5902 5904 5905 5907 5908 5910 5911 5912 5914 5915 5917
5768 5770 5773 5775 5778 5781 5785 5789 5793 5797 5801 5805 5809 5811 5815 5819 5822 5825 5830 5835 5837 5838 5839 5842 5845 5848 5851 5854 5856 5858 5860 5862 5864 5866 5868 5870 5872 5874 5876 5878 5880 5882 5883 5884 5885 5887 5889 5890 5892 5894 5895 5897 5898 5900 5901 5903 5905 5906 5908 5909 5911 5912 5914
5763 5767 5769 5771 5774 5777 5781 5785 5789 5794 5798 5801 5804 5807 5810 5814 5817 5821 5826 5830 5832 5834 5835 5837 5841 5844 5846 5849 5851 5853 5855 5858 5860 5862 5864 5866 5868 5870 5872 5874 5876 5878 5880 5881 5882 5884 5885 5887 5889 5890 5892 5893 5895 5896 5898 5899 5901 5903 5905 5906 5908 5909 5911
5758 5763 5765 5768 5771 5774 5777 5781 5785 5790 5794 5797 5800 5802 5806 5809 5812 5816 5821 5825 5828 5829 5830 5832 5836 5840 5842 5844 5846 5848 5850 5853 5855 5857 5859 5861 5863 5865 5868 5870 5872 5874 5876 5878 5879 5880 5882 5884 5885 5887 5888 5889 5891 5892 5894 5896 5898 5900 5902 5903 5904 5905 5907
5753 5758 5762 5765 5768 5771 5774 5777 5781 5785 5790 5793 5795 5798 5801 5804 5807 5811 5816 5819 5822 5824 5825 5827 5831 5834 5836 5837 5840 5843 5845 5847 5850 5852 5854 5856 5858 5861 5863 5866 5869 5870 5872 5874 5875 5876 5878 5880 5881 5883 5884 5885 5887 5889 5891 5893 5895 5897 5898 5899 5901 5902 5903
5748 5753 5758 5762 5765 5768 5771 5773 5777 5781 5785 5789 5792 5794 5797 5800 5803 5807 5810 5813 5815 5816 5817 5819 5823 5827 5829 5830 5833 5836 5839 5842 5844 5847 5849 5851 5853 5857 5860 5862 5864 5866 5868 5870 5871 5873 5874 5876 5878 5879 5881 5882 5884 5886 5888 5890 5892 5893 5894 5896 5898 5899 5900
5744 5749 5753 5758 5762 5765 5768 5770 5773 5776 5781 5785 5787 5790 5793 5796 5798 5800 5803 5805 5807 5808 5809 5810 5813 5817 5821 5825 5828 5831 5834 5837 5839 5842 5844 5846 5849 5852 5855 5857 5859 5862 5864 5866 5867 5869 5870 5872 5874 5875 5877 5879 5881 5883 5885 5887 5888 5890 5891 5894 5895 5896 5897
5740 5744 5749 5753 5757 5759 5762 5765 5768 5771 5776 5780 5783 5785 5789 5791 5793 5794 5797 5798 5799 5801 5803 5806 5809 5810 5813 5818 5823 5827 5829 5832 5835 5837 5839 5841 5844 5848 5850 5852 5855 5857 5859 5862 5863 5865 5866 5868 5870 5872 5874 5876 5878 5880 5882 5883 5885 5887 5888 5890 5892 5893 5894
Wind_Speed
23 24 28 26 23 22 20 20 23 21 18 17 15 15 14 9 7 7 10 15 19 21 22 22 23 23 23 22 22 22 20 19 18 18 19 20 20 19 18 17 17 16 16 16 15 14 12 11 10 9 9 8 8 8 7 7 7 6 5 5 4 3 3
26 27 29 27 24 22 22 24 24 22 20 18 16 16 15 11 7 7 9 13 18 21 22 22 23 23 24 24 23 23 22 20 19 19 20 21 21 20 20 20 19 18 17 16 15 14 13 11 10 9 9 8 7 7 8 7 7 7 6 5 5 4 4
31 28 28 26 24 23 24 25 24 22 22 20 17 15 15 13 9 8 8 11 16 20 22 22 23 23 24 25 24 24 23 22 20 20 20 21 22 22 22 22 21 20 18 17 16 14 13 12 10 9 8 7 7 8 8 8 7 7 6 6 6 6 6
33 29 27 24 23 24 25 26 26 24 23 21 18 16 16 16 12 9 8 9 13 18 21 22 23 24 25 25 25 25 25 23 22 21 21 22 23 23 23 23 22 21 20 19 17 16 14 13 11 10 8 8 7 7 8 8 8 8 8 8 8 8 9
35 34 32 28 26 26 26 27 26 24 23 23 20 17 17 18 15 11 9 8 10 15 20 24 25 25 26 26 26 26 26 25 24 23 22 22 23 23 23 23 23 22 22 20 19 17 15 14 13 11 9 8 8 8 9 10 10 10 10 10 9 9 8
38 38 35 33 31 31 30 27 25 23 23 23 22 19 17 19 17 12 11 9 10 13 17 22 24 25 25 26 27 27 26 26 25 24 23 23 23 23 24 24 24 24 23 21 20 18 17 15 14 12 10 10 9 10 11 12 12 11 10 9 8 7 6
36 38 37 35 32 32 32 29 26 25 24 24 24 22 18 19 20 15 12 11 9 11 13 17 21 23 24 26 27 27 27 27 26 25 24 23 23 23 24 25 25 24 23 22 21 19 18 17 15 13 12 11 12 12 13 12 11 10 8 7 6 6 5
33 34 36 38 35 31 29 28 27 28 27 26 25 23 18 18 21 19 13 12 10 10 11 14 18 21 23 25 26 27 28 28 27 26 25 24 24 24 25 25 25 25 24 23 22 20 19 18 16 14 13 13 14 14 14 13 12 10 8 7 6 5 4
31 30 34 39 39 35 28 26 28 29 27 26 25 23 20 18 21 22 17 12 11 10 10 12 15 19 22 24 25 26 28 29 28 27 26 25 24 24 25 25 25 25 24 23 22 21 20 19 17 16 15 15 15 15 15 14 12 11 9 8 7 6 5
32 31 34 37 38 36 31 28 29 29 28 27 25 24 23 21 22 23 19 14 11 10 10 12 14 17 21 23 25 26 28 28 29 28 27 26 25 25 25 25 25 25 24 24 23 21 21 20 18 17 16 16 17 17 16 16 14 13 11 9 8 7 7
30 31 34 37 39 38 34 32 30 30 30 28 26 26 26 25 24 22 19 18 14 11 11 12 13 15 18 21 24 26 26 27 28 28 28 26 26 26 26 26 26 25 24 24 23 22 22 21 20 18 18 18 19 19 19 18 16 15 12 10 9 8 9
30 31 33 36 40 41 37 33 29 29 30 30 29 28 27 27 26 22 21 21 17 13 12 12 12 13 16 19 22 24 25 26 27 27 28 28 27 27 28 27 27 26 25 25 24 23 23 23 22 21 20 20 20 20 20 20 18 16 14 12 10 10 10
30 31 33 35 38 40 39 35 32 31 31 31 31 30 28 28 28 26 24 25 22 17 14 14 13 13 14 16 18 21 24 25 26 27 27 28 29 29 29 29 28 27 26 26 25 24 24 24 23 23 22 22 21 22 22 21 20 18 15 13 12 11 11
30 28 29 33 35 36 37 37 34 33 32 32 32 31 30 29 30 29 29 29 26 22 18 17 15 14 14 15 15 17 20 23 25 26 27 28 30 30 30 29 29 28 27 26 26 25 25 25 25 25 24 23 22 22 22 22 21 19 17 14 13 13 12
32 32 32 34 36 35 35 36 37 35 34 34 34 33 32 32 32 32 32 31 29 25 22 20 18 16 16 15 14 15 17 21 23 26 27 28 29 30 30 30 30 29 28 26 26 26 25 25 26 26 24 23 22 21 21 22 21 20 18 16 15 14 13
33 38 40 42 42 41 39 38 38 37 35 36 35 35 35 35 34 34 34 33 30 27 25 23 20 18 17 16 15 15 16 18 20 23 25 27 28 29 30 30 31 30 28 27 27 26 26 25 26 26 25 24 23 22 21 21 22 22 20 19 17 15 13
33 38 41 41 41 40 40 41 39 37 38 40 41 40 39 38 38 37 36 34 31 29 27 25 22 20 18 17 17 16 15 15 17 20 23 25 27 28 29 30 31 31 29 28 27 27 26 25 25 25 25 25 24 23 21 21 22 23 23 22 19 16 14
36 39 40 38 38 37 39 41 41 40 40 43 46 46 44 43 41 40 37 34 32 30 29 27 24 22 20 19 19 18 15 15 15 17 19 22 25 26 28 29 31 31 30 29 28 27 26 25 25 24 25 24 24 23 22 21 22 24 24 24 21 18 15
40 41 41 40 39 38 39 42 43 43 41 41 42 43 41 41 41 40 37 34 32 32 31 29 26 24 22 21 20 18 16 15 15 15 17 19 21 24 26 27 29 31 31 30 29 29 27 26 25 25 24 24 24 24 23 22 22 24 25 25 23 20 17
43 43 42 43 42 41 41 44 46 45 44 42 41 40 40 41 41 39 38 35 34 34 33 31 28 26 24 22 20 19 17 16 15 15 16 17 19 21 23 24 26 28 31 31 30 29 28 27 26 26 25 24 24 24 24 24 23 24 26 27 25 22 19
46 45 44 44 45 44 45 46 46 45 44 43 43 43 43 43 41 40 39 38 36 36 34 33 30 27 25 23 20 19 19 17 16 16 16 17 17 18 20 22 23 25 29 31 31 30 30 29 27 27 26 25 24 24 25 25 25 25 26 27 26 24 21
46 47 46 44 45 47 48 48 48 46 44 43 44 43 43 43 42 41 40 38 35 34 34 34 31 28 25 23 20 19 19 18 17 17 17 16 16 17 18 20 22 23 26 29 31 31 31 30 28 27 27 27 26 25 26 26 26 26 26 27 27 26 23
46 46 46 44 45 47 48 47 47 46 44 44 44 44 43 43 42 39 37 35 33 31 32 33 31 27 25 23 21 20 20 20 19 18 18 17 16 16 18 20 21 21 23 26 29 31 30 30 29 28 27 27 27 26 26 27 27 27 28 29 28 26 24
45 45 45 45 46 47 47 46 45 45 44 44 44 45 43 42 41 39 37 36 32 30 30 30 29 26 24 22 22 21 20 21 21 20 19 18 16 16 18 20 21 22 22 23 26 29 30 30 30 29 28 28 28 27 28 28 28 28 30 31 29 27 25
45 45 45 45 46 47 47 46 45 45 45 43 44 44 42 41 42 41 38 35 32 30 30 30 28 26 23 22 23 22 21 22 22 21 20 18 17 17 19 21 22 23 23 23 24 27 29 30 30 30 30 29 29 29 28 28 28 28 29 31 30 29 27
44 44 44 45 46 47 47 47 45 45 45 44 43 43 42 42 42 41 38 35 33 33 32 31 28 25 23 23 24 24 24 23 23 22 21 19 18 19 20 22 23 24 24 24 25 26 27 28 29 30 30 30 30 30 29 28 27 27 28 30 31 30 30
44 44 44 46 47 47 48 48 47 46 46 44 43 43 43 43 43 41 38 36 36 35 33 31 30 27 25 25 25 26 25 25 24 24 23 21 20 21 21 22 23 24 25 26 26 26 27 27 28 29 29 29 29 29 28 27 27 26 28 29 30 30 31
43 44 44 45 47 47 48 48 48 48 46 45 44 44 45 46 45 42 40 39 36 34 33 33 33 30 27 26 27 27 27 27 26 25 25 24 22 21 21 22 23 24 26 27 27 27 27 27 27 28 28 28 28 27 26 26 26 26 27 28 30 30 30
46 46 45 46 46 47 48 48 48 49 48 47 47 46 47 47 46 45 43 40 36 34 35 36 35 32 28 27 28 29 29 29 28 27 27 26 23 21 21 22 24 25 26 27 28 27 27 26 26 26 26 26 26 25 25 25 26 26 26 28 29 30 30
51 50 48 47 47 47 47 48 49 49 49 48 48 49 48 48 48 47 45 41 38 38 39 39 37 34 30 27 29 31 31 31 31 29 28 27 26 24 22 22 24 25 25 27 28 27 26 26 25 25 25 25 25 25 24 25 26 26 26 28 29 29 29
51 51 50 49 48 47 47 47 48 49 48 48 49 49 49 49 49 48 46 42 40 42 42 41 38 36 32 29 30 32 33 33 32 31 29 29 28 26 24 23 24 25 25 27 27 27 26 25 25 25 25 25 25 25 25 26 26 26 26 26 27 27 26
49 50 51 50 49 48 47 46 46 46 47 47 48 49 49 49 49 49 47 45 44 44 44 43 41 39 35 31 31 34 34 34 34 32 31 31 31 28 26 25 25 25 25 26 26 26 25 25 26 26 26 25 25 25 26 26 26 25 25 25 26 26 26
52 50 51 51 49 47 46 45 44 43 44 45 47 48 49 49 50 49 47 46 46 46 46 45 43 41 38 35 34 35 35 35 35 33 32 32 32 30 28 27 26 25 24 24 25 25 25 25 26 26 26 26 26 26 26 25 25 24 24 25 25 26 26
59 53 51 50 49 47 46 45 43 43 43 44 46 47 48 49 50 49 46 45 45 46 48 47 44 42 41 39 37 36 36 36 36 34 33 33 33 31 29 28 26 25 24 24 24 25 25 25 26 26 27 27 26 26 25 24 24 24 24 25 25 26 25
61 57 52 50 49 47 46 45 45 44 43 44 45 47 47 48 49 47 45 44 45 47 49 49 46 44 44 43 41 38 38 37 36 35 34 34 33 31 29 27 26 25 25 25 25 25 25 26 26 27 27 28 27 26 25 24 24 25 25 25 26 26 25
55 55 53 50 48 47 46 46 46 45 44 44 45 46 47 47 46 45 44 44 46 48 51 51 49 47 47 47 44 41 40 39 37 36 36 35 33 30 28 28 27 27 26 26 26 26 26 27 27 27 28 28 27 26 25 25 25 25 25 24 24 24 24
51 54 53 49 47 47 46 47 47 46 45 45 46 46 47 47 47 47 46 46 48 50 53 55 53 51 50 50 47 43 42 40 38 37 37 35 32 30 29 29 29 28 27 27 28 28 28 28 28 28 28 27 27 26 25 24 24 24 23 23 22 22 23
50 53 53 50 48 48 48 49 49 48 47 47 48 48 48 48 48 48 48 49 50 51 52 55 56 55 53 51 49 46 44 41 39 38 37 35 32 31 31 30 29 29 28 28 29 29 29 28 28 28 27 27 26 25 25 24 23 23 23 23 22 23 23
Wind_Direction
243 239 241 239 232 230 232 234 237 236 234 233 237 246 245 229 213 211 213 216 216 219 221 219 216 215 215 214 213 213 211 206 202 202 202 200 195 187 181 179 179 177 174 171 169 169 171 175 179 182 187 190 188 186 186 186 184 184 184 179 168 158 146
244 242 239 239 238 232 230 232 233 235 236 234 233 240 245 232 204 199 211 216 216 217 220 220 218 216 216 216 216 215 214 210 206 205 206 205 201 195 188 185 184 183 181 179 178 179 183 188 193 198 202 201 200 198 195 194 192 189 189 184 174 161 146
243 241 240 241 241 234 230 231 231 233 236 236 233 236 244 238 207 186 203 215 216 216 218 220 219 218 218 218 218 218 217 213 209 207 208 209 207 203 196 192 191 190 189 187 188 190 194 198 202 208 211 209 206 203 197 195 193 189 185 174 158 143 130
241 240 242 238 236 235 233 232 230 231 234 237 235 231 238 241 220 186 190 213 218 217 217 219 220 219 219 219 219 219 218 216 212 210 210 211 211 209 204 200 198 197 196 196 197 198 200 204 208 211 213 212 208 200 191 186 177 168 161 151 140 132 126
250 245 242 236 236 240 240 237 233 231 234 238 237 229 232 241 229 193 181 203 217 218 217 218 219 218 217 218 220 220 220 219 216 212 211 212 214 214 212 209 206 205 204 204 204 204 205 208 211 211 210 208 202 188 176 168 160 156 153 147 142 139 134
253 247 242 238 238 241 245 243 235 234 236 238 238 234 232 239 235 208 181 191 213 218 220 222 223 222 220 219 220 221 221 221 220 216 213 212 215 216 216 216 214 211 211 210 209 209 209 211 212 212 208 201 191 180 171 165 162 162 162 159 156 154 151
250 248 244 243 239 237 240 240 237 239 239 235 235 233 233 240 241 226 192 183 205 217 221 225 226 226 225 224 223 223 223 223 222 220 216 213 214 216 218 220 220 218 217 216 214 213 214 215 214 212 206 197 189 181 177 174 173 175 177 177 177 176 174
245 244 241 243 241 236 235 236 236 237 236 235 234 230 230 240 246 243 217 186 192 208 213 221 225 225 227 227 227 227 227 225 224 222 220 216 214 216 219 222 223 224 223 222 221 218 218 219 218 214 207 198 193 189 186 185 184 187 192 195 199 203 201
239 237 239 243 243 239 232 230 232 233 232 233 232 227 224 229 240 248 239 206 188 196 208 214 220 223 225 227 228 229 230 229 227 225 222 219 217 218 220 222 224 226 226 228 227 224 223 224 222 219 212 204 200 198 196 194 193 196 203 206 213 224 229
238 235 236 241 242 236 226 223 233 238 235 233 232 229 225 225 232 241 245 231 201 192 205 211 214 220 223 226 228 230 232 232 231 230 227 223 219 220 223 224 226 227 226 229 230 228 227 229 227 224 219 212 208 206 204 202 201 203 210 214 218 231 243
237 236 233 235 238 236 229 226 233 238 238 236 233 231 227 228 232 236 243 243 223 202 206 212 215 220 223 226 228 229 232 234 234 233 232 228 224 223 225 226 227 228 227 227 229 228 228 230 230 227 224 220 215 212 211 209 207 208 214 219 222 231 244
228 233 233 232 236 240 239 232 228 231 236 237 232 231 229 229 233 235 240 245 238 222 216 217 219 222 225 228 228 229 232 234 235 235 234 233 229 227 227 228 229 229 228 227 227 227 228 230 231 228 227 226 222 219 217 215 212 212 215 223 229 235 243
222 228 233 232 233 238 240 234 227 226 233 235 232 231 231 230 232 234 239 247 247 238 230 228 226 225 230 232 231 232 233 234 236 236 235 234 232 230 229 229 230 231 229 227 227 227 228 230 232 231 230 230 227 224 223 220 216 215 217 224 235 243 248
214 215 222 228 231 234 237 236 230 223 225 230 232 231 230 231 231 232 237 244 246 242 238 237 234 231 234 237 236 235 235 235 236 236 236 236 233 231 230 231 232 232 231 230 229 228 228 230 233 235 235 236 233 229 228 225 220 219 221 226 237 248 253
208 201 205 216 221 222 226 230 227 221 220 224 229 230 231 231 231 231 236 241 243 241 240 240 239 235 235 237 238 237 236 236 236 236 237 238 236 234 232 232 233 233 233 232 231 230 229 230 233 237 239 241 240 236 233 230 224 221 223 229 237 247 255
210 207 210 218 220 219 220 222 223 221 220 222 225 228 230 232 231 232 235 239 241 241 242 242 243 241 238 239 240 239 239 239 238 238 238 239 239 238 235 233 233 234 234 233 233 232 231 232 234 237 240 243 244 242 238 235 229 224 226 231 238 245 256
211 214 218 224 227 226 223 222 222 220 216 216 219 222 225 227 230 232 233 235 237 239 241 241 242 241 238 239 241 241 242 242 241 240 239 239 240 240 238 235 234 235 234 234 235 234 233 234 235 238 241 243 245 245 243 239 233 227 228 233 239 244 253
209 213 218 222 227 229 226 225 226 224 220 216 216 218 221 223 226 228 230 232 234 237 239 239 239 238 234 234 240 243 244 246 245 244 242 240 239 240 240 238 236 235 235 235 236 236 235 235 236 238 240 242 244 245 244 242 237 232 231 235 239 244 251
210 212 214 217 221 223 222 221 223 225 225 222 218 217 219 222 225 225 227 230 234 236 238 238 237 235 231 230 235 241 246 248 248 247 245 242 240 240 240 240 238 238 237 236 237 238 237 236 237 238 240 241 243 244 242 241 239 235 234 236 239 244 251
213 213 213 215 218 219 219 220 221 221 221 222 223 223 222 223 226 226 225 227 231 232 234 236 235 232 230 228 229 234 241 247 250 250 248 245 242 242 242 243 241 240 238 237 237 238 239 239 239 240 240 240 241 242 242 240 238 237 236 237 239 243 250
215 216 214 215 218 219 220 222 223 223 221 221 224 227 228 229 231 231 228 226 229 231 232 234 235 233 232 229 225 227 234 242 248 251 250 247 244 243 244 246 245 243 241 239 238 239 240 241 240 241 242 241 241 241 241 240 238 237 238 238 240 242 247
214 216 216 216 219 220 221 223 224 224 224 224 224 225 229 231 233 234 232 230 231 233 235 236 235 233 233 232 226 223 228 236 243 248 250 249 245 242 244 246 247 246 243 241 239 239 241 242 242 243 244 244 242 241 241 240 238 238 240 241 240 241 246
212 215 216 216 220 222 223 225 226 224 225 226 227 227 229 231 232 232 233 234 234 236 239 240 239 235 235 237 233 226 226 231 237 242 247 248 244 241 243 244 245 246 245 243 241 240 241 243 244 244 245 246 245 243 242 242 240 238 240 242 241 240 244
211 213 215 215 219 223 224 225 226 225 225 227 228 227 228 231 233 231 230 231 232 235 238 241 242 241 238 239 238 233 228 230 233 236 241 245 243 240 240 242 243 244 244 243 242 241 241 242 244 245 245 247 247 246 245 244 242 240 240 243 243 241 244
209 211 213 214 217 221 224 225 225 225 225 226 229 230 228 228 230 231 231 230 230 232 234 236 242 244 240 238 239 238 232 230 231 233 237 240 240 238 239 240 242 242 242 242 242 242 242 242 244 245 246 246 248 249 248 247 246 244 243 243 244 243 243
208 209 212 214 216 219 223 225 225 225 224 225 227 231 232 231 230 231 233 233 233 235 236 237 241 243 239 235 236 237 236 233 231 232 235 237 237 237 238 238 240 241 242 241 242 242 243 243 245 246 246 247 248 249 250 250 248 247 245 245 245 243 242
207 209 212 214 216 219 221 223 224 223 224 224 225 228 231 233 234 234 233 233 235 237 239 240 242 240 236 236 236 237 237 236 233 232 234 235 235 237 238 238 239 241 243 243 242 242 243 244 246 247 248 248 248 249 250 251 249 247 246 246 245 244 242
210 212 213 215 217 218 220 222 222 222 222 223 225 227 228 231 234 235 235 235 237 239 242 244 244 240 236 236 236 236 237 236 234 233 235 236 235 237 239 239 239 240 242 244 243 242 243 244 245 247 249 249 249 249 249 250 249 247 246 246 245 244 243
217 218 218 218 218 218 219 221 222 222 221 222 224 227 228 229 232 234 236 237 239 241 243 245 246 244 240 236 235 235 236 235 234 233 236 239 239 239 240 239 238 238 241 244 244 242 243 243 244 246 248 248 249 248 247 248 249 247 245 244 244 243 242
216 219 219 219 219 218 218 220 221 222 222 222 224 226 228 229 231 233 235 237 238 240 243 245 247 247 244 238 235 235 235 234 234 233 237 241 243 243 244 242 239 238 240 242 243 242 241 242 243 244 245 246 247 247 246 246 247 246 243 241 241 241 240
211 214 217 219 220 220 219 219 221 222 222 222 223 226 228 229 230 232 235 236 237 239 243 245 247 249 248 241 235 234 234 235 234 234 237 242 245 247 248 246 242 238 238 240 241 240 239 239 241 242 243 244 245 245 245 245 245 243 240 238 238 238 238
211 214 216 219 220 221 221 220 221 222 223 222 224 226 229 230 231 232 233 234 236 239 242 244 245 246 247 242 235 232 233 235 235 236 238 243 246 248 249 248 244 240 239 239 239 237 236 236 238 240 242 243 244 245 245 244 242 239 236 236 236 236 237
214 213 216 219 220 222 224 223 221 221 222 223 225 227 229 231 232 233 232 232 235 238 241 242 242 243 243 240 234 231 232 234 235 237 240 243 246 248 248 248 245 242 240 240 239 238 236 235 237 239 241 243 244 244 243 240 237 234 233 234 235 236 236
216 214 216 218 220 223 225 225 224 221 220 222 224 227 229 231 233 234 234 233 234 237 239 240 239 239 240 239 235 231 231 233 234 236 239 242 245 246 246 245 245 244 242 240 239 237 236 235 236 237 239 240 240 239 237 235 232 231 230 231 233 235 235
217 215 215 217 219 222 224 226 226 224 222 221 223 226 228 230 233 234 234 233 234 235 237 239 238 236 237 238 236 232 231 232 234 234 237 241 244 243 243 244 243 242 241 239 238 237 236 235 235 235 236 236 236 235 233 231 230 230 230 231 233 235 237
214 214 214 215 217 220 223 226 228 227 224 223 224 226 228 230 232 232 232 232 232 232 233 234 233 233 234 235 235 233 232 231 233 234 236 241 242 241 241 241 241 240 239 238 237 237 236 234 234 234 234 235 235 235 234 233 233 234 235 235 235 238 240
212 210 212 213 214 217 221 225 228 228 226 224 224 226 228 230 231 231 229 229 230 231 231 231 228 226 229 232 233 232 232 231 231 232 236 240 240 239 239 239 239 238 238 237 237 236 235 234 234 234 234 235 235 236 236 236 236 237 237 236 235 237 239
208 207 210 211 213 215 218 221 224 226 224 223 223 225 227 229 231 231 230 229 228 229 231 232 228 222 222 227 230 230 230 230 229 231 235 238 237 236 237 237 238 238 237 236 237 237 236 234 233 234 234 235 235 235 235 235 235 234 234 234 232 231 231